Terminal Aerodrome Forecast
Issued by NWS Sterling, VA

Current Version | Previous Version | Text Only | Print | Product List | Glossary Off
Versions: 1 2 3 4 5 6 7 8 9 10 11 12 13 14 15 16 17 18 19 20 21 22 23 24 25 26 27

000
FTUS41 KLWX 221740
TAFDCA
TAF
KDCA 221740Z 2218/2324 17008KT P6SM BKN015 OVC100
     FM221900 17007KT 3SM -SHRA VCTS BKN040CB
     FM222300 21005KT P6SM BKN070
     FM230900 25005KT P6SM BKN060
     FM231100 28006KT P6SM BKN250
     FM231500 33008KT P6SM SCT035=

USA.gov is the U.S. government's official web portal to all federal, state and local government web resources and services.